This is the latest recevied weather packets stored in our database for station/object KK7RJD. If no packets are shown the sender has not sent any weather packets the latest 10 day(s).
| Time | Temp. | Humidity | Pressure | Rain* | Wind** | Luminosity | Snow |
|---|---|---|---|---|---|---|---|
| 1777656797 | 16.11° C | 26% | 1020.9 hPa | 0 mm | - | 842 W/m² | - |
| 1777656492 | 15.56° C | 29% | 1020.8 hPa | 0 mm | - | 833 W/m² | - |
| 1777656187 | 15° C | 29% | 1020.9 hPa | 0 mm | - | 826 W/m² | - |
| 1777655883 | 15° C | 28% | 1020.9 hPa | 0 mm | - | 816 W/m² | - |
| 1777655580 | 14.44° C | 29% | 1021 hPa | 0 mm | - | 807 W/m² | - |
| 1777655277 | 14.44° C | 31% | 1020.9 hPa | 0 mm | - | 797 W/m² | - |
| 1777654974 | 14.44° C | 31% | 1021.1 hPa | 0 mm | - | 787 W/m² | - |
| 1777654671 | 14.44° C | 30% | 1021 hPa | 0 mm | - | 776 W/m² | - |
| 1777654369 | 13.89° C | 32% | 1021.1 hPa | 0 mm | - | 765 W/m² | - |
| 1777654067 | 13.89° C | 33% | 1021.2 hPa | 0 mm | - | 753 W/m² | - |
| 1777653764 | 13.33° C | 32% | 1021.1 hPa | 0 mm | - | 741 W/m² | - |
| 1777653459 | 12.78° C | 34% | 1021.1 hPa | 0 mm | - | 728 W/m² | - |
| 1777653157 | 12.78° C | 33% | 1021.2 hPa | 0 mm | - | 715 W/m² | - |
| 1777652853 | 12.78° C | 34% | 1021.2 hPa | 0 mm | - | 700 W/m² | - |
| 1777652549 | 12.78° C | 33% | 1021.1 hPa | 0 mm | - | 686 W/m² | - |
| 1777652247 | 12.78° C | 34% | 1021.1 hPa | 0 mm | - | 671 W/m² | - |
| 1777651944 | 12.22° C | 36% | 1021.1 hPa | 0 mm | - | 651 W/m² | - |
| 1777651640 | 11.67° C | 35% | 1021.1 hPa | 0 mm | - | 634 W/m² | - |
| 1777651337 | 11.67° C | 34% | 1021.2 hPa | 0 mm | - | 615 W/m² | - |
| 1777651034 | 11.11° C | 35% | 1021.4 hPa | 0 mm | - | 595 W/m² | - |
| 1777650731 | 11.11° C | 35% | 1021.4 hPa | 0 mm | - | 574 W/m² | - |
| 1777650428 | 10.56° C | 37% | 1021.4 hPa | 0 mm | - | 563 W/m² | - |
| 1777650125 | 10.56° C | 36% | 1021.2 hPa | 0 mm | - | 511 W/m² | - |
| 1777649823 | 10.56° C | 35% | 1021.4 hPa | 0 mm | - | 527 W/m² | - |
| 1777649520 | 10° C | 36% | 1021.4 hPa | 0 mm | - | 517 W/m² | - |
* Rain latest hour (hover to see other rain measurements)
** Current wind speed in m/s (hover to see current wind gust speed)